Weather History for Torrington, WY

Change the Weather History Date:

Friday, July 5, 2013

  Actual Average Record
Temperature  
Mean Temperature 77 °F 73 °F  
Max Temperature 91 °F 89 °F 100 °F (2014)
Min Temperature 63 °F 57 °F 51 °F (2010)
Degree Days  
Heating Degree Days 0 0  
Month to date heating degree days 0 0  
Since 1 June heating degree days 34 75  
Since 1 July heating degree days 0 0  
Cooling Degree Days 12 8  
Month to date cooling degree days 39 37  
Year to date cooling degree days 238 171  
Since 1 June cooling degree days 199 153  
Growing Degree Days 27 (Base 50)    
Moisture  
Dew Point 55 °F    
Average Humidity 55    
Maximum Humidity 84    
Minimum Humidity 26    
Precipitation  
Precipitation 0.01 in 0.04 in 1.25 in (2009)
Month to date precipitation 0.01 0.19  
Year to date precipitation 5.43 8.08  
Sea Level Pressure  
Sea Level Pressure 29.72 in    
Wind  
Wind Speed 7 mph (NW)    
Max Wind Speed 25 mph    
Max Gust Speed 33 mph    
Visibility 10 miles    
Events Rain , Thunderstorm    
T = Trace of Precipitation, MM = Missing Value Source: NWS Daily Summary

Daily Weather History Graph

Daily Weather History Graph

Search for Another Location

Airport:

Trip Planner

Search our weather history database for the weather conditions in past years. The results will help you decide how hot, cold, wet, or windy it might be!

Date:

Astronomy

Jul. 05, 2013 Rise Set
Actual Time 5:27 AM MDT 8:35 PM MDT
Civil Twilight 4:52 AM MDT 9:09 PM MDT
Nautical Twilight 4:09 AM MDT 9:52 PM MDT
Astronomical Twilight 3:16 AM MDT 10:44 PM MDT
Moon 3:29 AM MDT (7/5) 6:31 PM MDT (7/5)
Length of Visible Light 16h 16m
Length of Day
15h 08m
Waning Crescent, 6% of the Moon is Illuminated
Jul 5
Waning Crescent
Jul 8
New
Jul 15
First Quarter
Jul 22
Full
Jul 29
Last Quarter

Hourly Weather History & Observations

Time (MDT) Temp. Heat Index Dew Point Humidity Pressure Visibility Wind Dir Wind Speed Gust Speed Precip Events Conditions
12:53 AM 68.0 °F - 50.0 °F 52% 29.73 in 10.0 mi ENE 8.1 mph - N/A   Partly Cloudy
1:53 AM 69.1 °F - 50.0 °F 51% 29.76 in 10.0 mi North 15.0 mph - N/A   Mostly Cloudy
2:53 AM 68.0 °F - 54.0 °F 61% 29.75 in 10.0 mi North 8.1 mph - N/A   Partly Cloudy
3:53 AM 66.0 °F - 54.0 °F 65% 29.74 in 10.0 mi North 5.8 mph - N/A   Clear
4:53 AM 64.9 °F - 54.0 °F 68% 29.71 in 10.0 mi NNE 10.4 mph - N/A   Clear
5:53 AM 64.9 °F - 55.0 °F 70% 29.74 in 10.0 mi West 5.8 mph - N/A   Mostly Cloudy
6:53 AM 64.0 °F - 57.0 °F 78% 29.75 in 10.0 mi West 8.1 mph - 0.00 in   Mostly Cloudy
7:53 AM 64.9 °F - 59.0 °F 81% 29.73 in 10.0 mi NE 4.6 mph - 0.00 in   Overcast
8:53 AM 68.0 °F - 57.9 °F 70% 29.74 in 10.0 mi West 4.6 mph - N/A   Overcast
9:53 AM 71.1 °F - 55.0 °F 57% 29.74 in 10.0 mi Calm Calm - N/A   Overcast
10:53 AM 75.9 °F - 54.0 °F 46% 29.72 in 10.0 mi SE 4.6 mph - N/A   Clear
11:53 AM 81.0 °F 80.5 °F 54.0 °F 39% 29.70 in 10.0 mi SSE 9.2 mph - N/A   Clear
12:53 PM 84.0 °F 82.6 °F 54.0 °F 35% 29.69 in 10.0 mi SSW 4.6 mph - N/A   Clear
1:53 PM 89.1 °F - 51.1 °F 27% 29.66 in 10.0 mi Variable 6.9 mph - N/A   Clear
2:53 PM 89.1 °F - 50.0 °F 26% 29.63 in 10.0 mi Variable 4.6 mph - N/A   Clear
3:53 PM 90.0 °F - 50.0 °F 25% 29.61 in 10.0 mi SSE 11.5 mph 18.4 mph N/A   Clear
4:53 PM 84.9 °F - 52.0 °F 32% 29.64 in 10.0 mi SE 4.6 mph - N/A   Clear
5:12 PM 84.2 °F - 51.8 °F 33% 29.81 in 10.0 mi Calm Calm - N/A Thunderstorm Scattered Clouds
5:37 PM 71.6 °F - 62.6 °F 73% 29.85 in 10.0 mi WSW 17.3 mph 26.5 mph 0.00 in Rain , Thunderstorm Light Rain
5:46 PM 71.6 °F - 60.8 °F 69% 29.85 in 10.0 mi West 13.8 mph 23.0 mph 0.01 in Rain , Thunderstorm Light Rain
5:53 PM 72.0 °F - 61.0 °F 68% 29.70 in 10.0 mi West 8.1 mph - 0.01 in Rain Light Rain
6:53 PM 71.1 °F - 60.1 °F 68% 29.71 in 10.0 mi South 11.5 mph - 0.00 in   Scattered Clouds
7:53 PM 72.0 °F - 60.1 °F 66% 29.68 in 10.0 mi NE 8.1 mph - N/A   Clear
8:53 PM 69.1 °F - 60.1 °F 73% 29.68 in 10.0 mi Calm Calm - N/A   Clear
9:53 PM 71.1 °F - 57.9 °F 63% 29.73 in 10.0 mi NNW 12.7 mph 23.0 mph N/A   Clear
10:53 PM 73.9 °F - 51.1 °F 45% 29.67 in 10.0 mi NNE 15.0 mph - N/A   Partly Cloudy
11:53 PM 73.9 °F - 50.0 °F 43% 29.64 in 10.0 mi WSW 3.5 mph - N/A   Clear